Weather Roundup
Issued by NWS

Home | Current Version | Previous Version | Text Only | Print | Product List | Glossary On
Versions: 1 2 3 4 5 6 7 8 9 10 11 12 13 14 15 16 17 18 19 20 21 22 23 24 25 26 27 28 29 30 31 32 33 34 35 36 37 38 39 40 41 42 43 44 45 46 47 48 49 50
102
NZUS93 KARX 281010
HRRWXR

CURRENT HOURLY OBSERVATIONS ACROSS
MUCH OF THE UPPER MISSISSIPPI VALLEY
NATIONAL WEATHER SERVICE LA CROSSE WI
500 AM CDT SAT MAY 28 2016


...SOUTHEAST MINNESOTA...


CITY           SKY/WX    TMP DP  RH WIND       PRES   REMARKS
ROCHESTER      LGT RAIN  62  62 100 N13       29.74F VSB 1/2
ROCHESTER/MAYO CLOUDY    62  62 100 NW6       29.74F
WINONA         CLOUDY    64  64 100 CALM      29.73R
AUSTIN         CLOUDY    63  61  94 NE5       29.72S FOG
ALBERT LEA     CLOUDY    63  63 100 NW3       29.72F FOG
DODGE CENTER   MOCLDY    61  61 100 NE8       29.75R FOG
PRESTON        CLOUDY    63  61  94 N5        29.73F FOG
OWATONNA       DRIZZLE   63  61  94 CALM      29.74S
FARIBAULT      CLOUDY    61  61 100 N3        29.74F
$$

...ELSEWHERE IN MINNESOTA...


CITY           SKY/WX    TMP DP  RH WIND       PRES   REMARKS
MINNEAPOLIS    CLOUDY    62  59  90 N5        29.75F
INTNL FALLS    CLOUDY    57  54  89 CALM      29.84S
DULUTH         DRIZZLE   50  49  96 S6        29.78R FOG
RED WING       CLOUDY    63  61  94 W3        29.75R FOG
REDWOOD FALLS  MOCLDY    60  57  89 E5        29.75R
MANKATO        CLOUDY    63  59  88 NE9       29.75R
WORTHINGTON    LGT RAIN  62  61  96 SW9       29.74R
FAIRMONT       CLOUDY    64  61  88 CALM      29.73S
$$

...SOUTHWEST WISCONSIN...


CITY           SKY/WX    TMP DP  RH WIND       PRES   REMARKS
LA CROSSE      LGT RAIN  68  66  93 N5        29.71F
PRAIRIE DU CHI HVY RAIN  66  64  94 CALM      29.71S
BOSCOBEL       RAIN      67  66  97 NW6       29.71R FOG
LONE ROCK      CLOUDY    69  66  90 E9        29.73F
PLATTEVILLE    CLOUDY    68  67  97 S15       29.73F
FORT MC COY    RAIN      64  64 100 CALM      29.73F
CAMP DOUGLAS   DRIZZLE   68 N/A N/A E8        29.73F
MAUSTON-NEW LI LGT RAIN  68  67  98 E3        29.73F
VIROQUA        CLOUDY    66  66 100 SE7       29.74S
WIS DELLS      DRIZZLE   67  64  91 SE8       29.76S
$$

...ELSEWHERE IN WISCONSIN...


CITY           SKY/WX    TMP DP  RH WIND       PRES   REMARKS
MILWAUKEE      CLOUDY    64  61  90 SE9       29.84S
MADISON        LGT RAIN  68  66  93 SE12      29.77F
GREEN BAY      CLOUDY    68  65  90 S7        29.81S
EAU CLAIRE     FOG       61  61 100 CALM      29.75S VSB 1/2
BLACK RVR FLS  CLOUDY    65  65 100 N3        29.73F
MEDFORD        CLOUDY    65  65 100 CALM      29.77F
WAUSAU         CLOUDY    69  66  90 SE5       29.76F FOG
WIS RAPIDS     CLOUDY    68  65  90 SE5       29.77F FOG
MARSHFIELD     CLOUDY    68  65  90 CALM      29.76F FOG
RICE LAKE      CLOUDY    59  57  95 CALM      29.77F FOG
$$

...NORTHEAST IOWA...


CITY           SKY/WX    TMP DP  RH WIND       PRES   REMARKS
WATERLOO       CLOUDY    64  61  90 S7        29.73S
DUBUQUE        CLOUDY    65  65 100 S12       29.74R
DECORAH        LGT RAIN  66  66 100 CALM      29.72R
MASON CITY     CLOUDY    61  61 100 CALM      29.74R FOG
CHARLES CITY   CLOUDY    64  64 100 SE5       29.74R FOG
OELWEIN        CLOUDY    64  64 100 S6        29.75R
$$

...ELSEWHERE IN IOWA...


CITY           SKY/WX    TMP DP  RH WIND       PRES   REMARKS
DES MOINES     CLOUDY    63  60  90 S3        29.74S
IOWA CITY      MOCLDY    62  61  96 CALM      29.75F
FORT DODGE     CLOUDY    64  61  88 CALM      29.75R
MARSHALLTOWN   CLOUDY    62  60  93 S6        29.72S
CEDAR RAPIDS   CLOUDY    63  63 100 SW3       29.74F
$$

...NORTHERN ILLINOIS...


CITY           SKY/WX    TMP DP  RH WIND       PRES   REMARKS
CHICAGO-OHARE  CLOUDY    69  64  84 S12       29.85S
CHICAGO-MIDWAY CLOUDY    73  63  70 S13       29.86R
MOLINE         PTCLDY    69  63  81 SW14      29.76R
ROCKFORD       CLOUDY    70  65  84 S21       29.82S
PEORIA         CLOUDY    70  65  84 S15G24    29.83R
$$

NOTE: "FAIR" INDICATES FEW OR NO CLOUDS BELOW 12,000 FEET WITH NO
SIGNIFICANT WEATHER AND/OR OBSTRUCTIONS TO VISIBILITY. WIND
SPEEDS ARE IN MILES-PER-HOUR.




USA.gov is the U.S. government's official web portal to all federal, state and local government web resources and services.